Frankfort, KY

8:27 PM EDT on October 17, 2017 (GMT -0400)
Capital City

Weather History for KFFT - March, 2014

Change the Weather History Date:

Saturday, March 1, 2014

  Actual Average Record
Temperature  
Mean Temperature 43 °F 40 °F  
Max Temperature 56 °F 50 °F 75 °F (1976)
Min Temperature 29 °F 30 °F 9 °F (1993)
Degree Days  
Heating Degree Days 22 25  
Month to date heating degree days 22 25  
Since 1 July heating degree days 4134 3664  
Cooling Degree Days 0 0  
Month to date cooling degree days 0 0  
Year to date cooling degree days 0 0  
Moisture  
Dew Point 30 °F    
Average Humidity 56    
Maximum Humidity 70    
Minimum Humidity 41    
Precipitation  
Precipitation T in 0.13 in 1.94 in (2017)
Month to date precipitation T 0.13  
Year to date precipitation 6.20 6.68  
Sea Level Pressure  
Sea Level Pressure 30.13 in    
Wind  
Wind Speed 4 mph (SSW)    
Max Wind Speed 13 mph    
Max Gust Speed 16 mph    
Visibility 10 miles    
Events      
T = Trace of Precipitation, MM = Missing Value Source: NWS Daily Summary

Daily Weather History Graph

Daily Weather History Graph

Search for Another Location

Airport or City:

Trip Planner

Search our weather history database for the weather conditions in past years. The results will help you decide how hot, cold, wet, or windy it might be!

Date:

Astronomy

Mar. 01, 2014 Rise Set
Actual Time 7:11 AM EST 6:32 PM EST
Civil Twilight 6:44 AM EST 6:59 PM EST
Nautical Twilight 6:14 AM EST 7:30 PM EST
Astronomical Twilight 5:43 AM EST 8:00 PM EST
Moon 7:05 AM EST (3/1) 7:18 PM EST (3/1)
Length of Visible Light 12h 14m
Length of Day
11h 21m
New Moon, 0% of the Moon is Illuminated
Mar 1
New Moon
Mar 8
First Quarter
Mar 16
Full
Mar 23
Last Quarter
Mar 30
New

Hourly Weather History & Observations

Time (EST) Temp. Windchill Dew Point Humidity Pressure Visibility Wind Dir Wind Speed Gust Speed Precip Events Conditions
12:53 AM 30.0 °F - 16.0 °F 56% 30.11 in 10.0 mi Calm Calm - N/A   Overcast
1:53 AM 32.0 °F - 17.1 °F 54% 30.09 in 10.0 mi Calm Calm - N/A   Mostly Cloudy
2:53 AM 33.1 °F 26.9 °F 17.1 °F 52% 30.09 in 10.0 mi South 6.9 mph - N/A   Overcast
3:53 AM 39.0 °F 33.4 °F 21.9 °F 50% 30.11 in 10.0 mi SW 8.1 mph - N/A   Overcast
4:53 AM 39.0 °F 34.0 °F 23.0 °F 53% 30.14 in 10.0 mi WSW 6.9 mph - 0.00 in   Overcast
5:53 AM 37.0 °F - 27.0 °F 67% 30.13 in 10.0 mi Calm Calm - N/A   Overcast
6:53 AM 36.0 °F - 27.0 °F 70% 30.15 in 10.0 mi Calm Calm - N/A   Overcast
7:53 AM 39.0 °F 34.8 °F 30.0 °F 70% 30.17 in 10.0 mi South 5.8 mph - N/A   Overcast
8:53 AM 41.0 °F - 32.0 °F 70% 30.19 in 10.0 mi Calm Calm - N/A   Overcast
9:53 AM 43.0 °F 40.3 °F 33.1 °F 68% 30.19 in 10.0 mi South 4.6 mph - N/A   Overcast
10:53 AM 46.9 °F - 34.0 °F 61% 30.18 in 10.0 mi SSW 9.2 mph - N/A   Overcast
11:53 AM 50.0 °F - 33.1 °F 52% 30.18 in 10.0 mi SW 9.2 mph - N/A   Overcast
12:53 PM 53.1 °F - 32.0 °F 45% 30.14 in 10.0 mi Variable 3.5 mph - N/A   Mostly Cloudy
1:53 PM 53.1 °F - 32.0 °F 45% 30.14 in 10.0 mi SW 10.4 mph - N/A   Overcast
2:53 PM 54.0 °F - 32.0 °F 43% 30.12 in 10.0 mi West 5.8 mph - N/A   Overcast
3:53 PM 55.0 °F - 32.0 °F 42% 30.10 in 10.0 mi SSW 9.2 mph - N/A   Overcast
4:53 PM 55.0 °F - 32.0 °F 42% 30.09 in 10.0 mi South 8.1 mph - N/A   Overcast
5:53 PM 54.0 °F - 33.1 °F 45% 30.11 in 10.0 mi WSW 4.6 mph - N/A   Overcast
6:53 PM 53.1 °F - 33.1 °F 47% 30.11 in 10.0 mi Calm Calm - N/A   Overcast
7:53 PM 50.0 °F - 33.1 °F 52% 30.11 in 10.0 mi Calm Calm - N/A   Overcast
8:53 PM 48.9 °F - 33.1 °F 54% 30.12 in 10.0 mi Calm Calm - N/A   Overcast
9:53 PM 48.0 °F - 35.1 °F 61% 30.13 in 10.0 mi SSW 4.6 mph - N/A   Overcast
10:53 PM 48.9 °F - 36.0 °F 61% 30.13 in 10.0 mi Calm Calm - N/A   Overcast
11:53 PM 46.9 °F - 36.0 °F 66% 30.12 in 10.0 mi Calm Calm - N/A   Overcast